Weather reports worldwide

Advertisment
Rostherne No 2, United Kingdom (3351): temperature & dewpoint: 06.11.2019 16:00:00 - 12.11.2019 16:00:00 (GMT)Rostherne No 2, United Kingdom (3351): wind speed & gusts: 06.11.2019 16:00:00 - 12.11.2019 16:00:00 (GMT)Rostherne No 2, United Kingdom (3351): wind direction: 06.11.2019 16:00:00 - 12.11.2019 16:00:00 (GMT)Rostherne No 2, United Kingdom (3351): reduced air pressure: 06.11.2019 16:00:00 - 12.11.2019 16:00:00 (GMT)Rostherne No 2, United Kingdom (3351): visibility: 06.11.2019 16:00:00 - 12.11.2019 16:00:00 (GMT)Rostherne No 2, United Kingdom (3351): sunshine duration: 06.11.2019 16:00:00 - 12.11.2019 16:00:00 (GMT)Rostherne No 2, United Kingdom (3351): precipitation: 06.11.2019 16:00:00 - 12.11.2019 16:00:00 (GMT)
Date & Time tt [°C] td [°C] ff [km/h] ff [kn] fx [km/h] fx [kn] dd ppp [hPa] vv [km] sd [min] rr [mm]
12.11.2019 16:00:00 8,8 4,7 28 15 - - NNW 996,0 45 0 0,0
12.11.2019 15:00:00 9,1 5,1 26 14 - - NW 995,1 35 24 0,0
12.11.2019 14:00:00 8,9 5,5 24 13 - - NNW 994,3 45 6 0,0
12.11.2019 13:00:00 7,5 4,4 22 12 46 25 NNW 994,0 40 12 0,0
12.11.2019 12:00:00 8,4 6,0 21 11 - - NW 992,9 50 0 0,0
12.11.2019 11:00:00 9,2 7,6 22 12 48 26 WNW 992,3 27 6 0,0
12.11.2019 10:00:00 7,4 6,5 28 15 55 30 WNW 992,2 17 0 0,2
12.11.2019 09:00:00 6,6 6,3 28 15 - - W 991,9 13 0 3,4
12.11.2019 08:00:00 5,2 4,5 31 17 57 31 W 992,4 5 0 5,0
12.11.2019 07:00:00 5,9 3,4 37 20 57 31 W 992,2 16 0 0,2
12.11.2019 06:00:00 6,0 3,5 22 12 - - WSW 993,3 11 0 0,0
12.11.2019 05:00:00 6,0 3,5 24 13 - - WSW 994,3 20 0 0,0
12.11.2019 04:00:00 6,1 3,5 21 11 - - WSW 995,0 18 0 0,0
12.11.2019 03:00:00 5,7 3,9 18 10 - - W 995,6 18 0 0,0
12.11.2019 02:00:00 5,4 3,7 16 9 - - WSW 996,1 10 0 0,0
12.11.2019 01:00:00 5,8 3,7 21 11 50 27 W 996,6 21 0 0,6
12.11.2019 00:00:00 6,0 3,1 21 11 48 26 W 996,8 20 - 0,0
11.11.2019 23:00:00 6,6 3,3 22 12 - - W 997,1 21 0 0,0
11.11.2019 22:00:00 6,2 3,5 21 11 - - W 997,2 17 0 0,4
11.11.2019 21:00:00 6,4 3,7 21 11 - - W 997,4 18 0 0,0
11.11.2019 20:00:00 6,3 3,7 22 12 - - WNW 997,7 20 0 0,0
11.11.2019 19:00:00 5,6 3,6 24 13 52 28 W 997,8 22 0 0,2
11.11.2019 18:00:00 6,1 4,8 22 12 46 25 W 997,8 13 0 1,0
11.11.2019 17:00:00 6,8 5,4 26 14 - - W 997,6 8 0 0,6
11.11.2019 16:00:00 5,9 3,6 34 18 61 33 WNW 997,8 8 0 1,0
11.11.2019 15:00:00 6,7 5,3 34 18 52 28 WNW 997,3 1,6 0 1,8
11.11.2019 14:00:00 7,6 5,5 26 14 46 25 W 997,8 12 0 0,4
11.11.2019 13:00:00 7,6 4,8 28 15 55 30 W 998,3 19 12 0,2
11.11.2019 12:00:00 7,8 5,1 26 14 46 25 W 998,7 24 6 0,0
11.11.2019 11:00:00 8,3 4,7 28 15 46 25 W 999,0 14 12 0,0
11.11.2019 10:00:00 7,6 4,4 24 13 - - WNW 998,9 14 6 0,0
11.11.2019 09:00:00 7,2 4,6 26 14 48 26 WNW 998,9 16 0 0,2
11.11.2019 08:00:00 6,9 5,2 24 13 - - WNW 998,8 18 0 0,0
11.11.2019 07:00:00 6,3 5,3 21 11 - - WNW 998,2 15 0 0,4
11.11.2019 06:00:00 5,4 4,9 9 5 - - SW 998,2 17 0 0,2
11.11.2019 05:00:00 5,5 5,0 8 4 - - SW 998,4 17 0 1,0
11.11.2019 04:00:00 5,6 5,1 8 4 - - SSW 998,8 13 0 2,6
11.11.2019 03:00:00 5,7 5,1 9 5 - - WSW 999,9 7 0 2,0
11.11.2019 02:00:00 5,8 4,7 18 10 - - S 1001,0 18 0 0,0
11.11.2019 01:00:00 5,0 4,4 18 10 - - S 1002,5 12 0 1,8
11.11.2019 00:00:00 4,5 3,7 16 9 48 26 SSE 1004,9 7 - 1,2
10.11.2019 23:00:00 5,1 3,9 18 10 - - S 1006,7 14 0 2,0
10.11.2019 22:00:00 5,0 3,9 15 8 - - S 1008,7 12 0 0,2
10.11.2019 21:00:00 4,9 3,3 9 5 - - SSW 1010,4 22 0 0,0
10.11.2019 20:00:00 4,5 3,5 8 4 - - S 1011,0 22 0 0,0
10.11.2019 19:00:00 3,6 2,3 4 2 - - S 1011,4 23 0 0,0
10.11.2019 18:00:00 4,2 2,5 11 6 - - SE 1011,2 25 0 0,0
10.11.2019 17:00:00 5,4 3,1 4 2 - - S 1013,3 40 0 0,0
10.11.2019 16:00:00 6,4 2,7 4 2 - - S 1013,8 40 6 0,0
10.11.2019 15:00:00 8,4 1,8 4 2 - - SSW 1014,8 50 60 0,0
10.11.2019 14:00:00 9,3 2,4 4 2 - - SW 1015,3 30 60 0,0
10.11.2019 13:00:00 8,2 1,8 5 3 - - W 1015,7 30 60 0,0
10.11.2019 12:00:00 7,4 1,3 4 2 - - NW 1015,6 45 60 0,0
10.11.2019 11:00:00 6,2 1,2 4 2 - - NNW 1016,2 40 60 0,0
10.11.2019 10:00:00 3,6 1,2 9 5 - - NW 1016,6 35 60 0,0
10.11.2019 09:00:00 1,6 0,3 9 5 - - NNW 1015,9 35 42 0,0
10.11.2019 08:00:00 -0,5 -1,1 8 4 - - NW 1015,4 29 0 0,0
10.11.2019 07:00:00 -0,3 -1,4 9 5 - - NNW 1014,3 35 0 0,0
10.11.2019 06:00:00 0,8 -0,8 13 7 - - NW 1013,6 35 0 0,0
10.11.2019 05:00:00 1,8 -0,7 9 5 - - NNW 1012,8 45 0 0,0
10.11.2019 04:00:00 3,3 -0,2 5 3 - - NNE 1012,0 40 0 0,0
10.11.2019 03:00:00 3,7 0,5 4 2 - - NNE 1011,0 50 0 0,0
10.11.2019 02:00:00 4,3 0,8 8 4 - - NNE 1010,2 50 0 0,0
10.11.2019 01:00:00 4,4 1,5 9 5 - - NNE 1009,3 40 0 0,0
10.11.2019 00:00:00 4,3 2,0 13 7 - - NE 1008,5 27 - 0,2
09.11.2019 23:00:00 4,1 2,5 13 7 - - NE 1007,7 14 0 0,6
09.11.2019 22:00:00 4,2 2,7 15 8 - - ENE 1006,8 10 0 0,8
09.11.2019 21:00:00 3,8 2,8 13 7 - - ENE 1005,9 10 0 1,6
09.11.2019 20:00:00 3,7 2,5 13 7 - - ENE 1005,3 9 0 1,2
09.11.2019 19:00:00 3,9 2,6 15 8 - - E 1004,7 13 0 1,2
09.11.2019 18:00:00 4,0 2,5 15 8 - - E 1004,3 14 0 0,6
09.11.2019 17:00:00 5,1 1,8 11 6 - - E 1003,6 18 0 0,0
09.11.2019 16:00:00 5,3 1,4 13 7 - - ESE 1003,2 30 0 0,0
09.11.2019 15:00:00 5,6 1,8 13 7 - - ESE 1002,9 35 0 0,0
09.11.2019 14:00:00 5,4 2,5 11 6 - - SE 1003,0 25 0 0,0
09.11.2019 13:00:00 5,1 2,5 13 7 - - ESE 1003,3 30 0 0,0
09.11.2019 12:00:00 4,6 2,7 16 9 - - SE 1004,3 22 0 0,0
09.11.2019 11:00:00 3,7 2,7 11 6 - - SE 1005,5 27 0 0,0
09.11.2019 10:00:00 2,4 2,3 5 3 - - SE 1005,8 26 0 0,0
09.11.2019 09:00:00 1,2 1,1 9 5 - - SE 1006,5 19 0 0,0
09.11.2019 08:00:00 -0,8 -0,9 5 3 - - SE 1007,2 7 0 0,0
09.11.2019 07:00:00 -0,9 -1,0 4 2 - - SE 1007,7 6 0 0,0
09.11.2019 06:00:00 -0,9 -1,0 4 2 - - SE 1008,5 3,0 0 0,0
09.11.2019 05:00:00 -0,2 -0,4 8 4 - - SE 1009,0 3,7 0 0,0
09.11.2019 04:00:00 -0,9 -1,1 5 3 - - SSE 1009,9 3,0 0 0,0
09.11.2019 03:00:00 0,1 0,0 5 3 - - ESE 1010,6 2,7 0 0,0
09.11.2019 02:00:00 0,5 0,3 4 2 - - SE 1011,5 2,3 0 0,0
09.11.2019 01:00:00 1,2 0,8 2 1 - - SSE 1012,3 2,3 0 0,0
09.11.2019 00:00:00 2,2 1,7 5 3 - - E 1012,4 3,8 - 0,0
08.11.2019 23:00:00 2,6 2,2 5 3 - - SE 1012,5 4,5 0 0,0
08.11.2019 22:00:00 2,9 2,5 2 1 - - NW 1013,1 9 0 0,0
08.11.2019 21:00:00 2,5 1,9 5 3 - - NW 1013,2 9 0 0,0
08.11.2019 20:00:00 2,4 1,2 8 4 - - NW 1013,0 7 0 0,0
08.11.2019 19:00:00 3,7 1,8 8 4 - - WNW 1013,0 24 0 0,0
08.11.2019 18:00:00 6,0 2,9 8 4 - - NNW 1012,8 50 0 0,0
08.11.2019 17:00:00 6,4 3,1 8 4 - - N 1012,4 50 0 0,0
08.11.2019 16:00:00 6,9 3,2 11 6 - - N 1011,7 50 0 0,0
08.11.2019 15:00:00 7,7 2,6 15 8 - - N 1010,9 45 6 0,0
08.11.2019 14:00:00 7,9 2,9 16 9 - - NW 1010,4 45 24 0,0
08.11.2019 13:00:00 7,9 3,1 15 8 - - NW 1010,3 35 42 0,0
08.11.2019 12:00:00 8,4 2,8 15 8 - - NNW 1010,2 35 54 0,0
08.11.2019 11:00:00 8,0 2,4 13 7 - - NNW 1010,2 50 60 0,0
08.11.2019 10:00:00 6,9 2,2 15 8 - - N 1009,9 30 60 0,0
08.11.2019 09:00:00 5,9 2,2 15 8 - - NNW 1009,0 40 48 0,0
08.11.2019 08:00:00 4,3 1,6 13 7 - - N 1008,3 40 0 0,0
08.11.2019 07:00:00 3,7 1,2 8 4 - - NW 1007,5 35 0 0,0
08.11.2019 06:00:00 5,6 2,1 16 9 - - N 1006,5 50 0 0,0
08.11.2019 05:00:00 7,0 3,0 16 9 - - N 1005,3 30 0 0,0
08.11.2019 04:00:00 7,3 3,0 15 8 - - NNE 1003,9 35 0 0,0
08.11.2019 03:00:00 7,4 3,1 15 8 - - NNE 1003,1 45 0 0,0
08.11.2019 02:00:00 7,4 3,8 16 9 - - NNE 1002,2 40 0 0,0
08.11.2019 01:00:00 7,1 3,6 15 8 - - NNE 1001,2 30 0 0,0
08.11.2019 00:00:00 7,2 3,9 18 10 - - NNE 1000,3 28 - 0,0
07.11.2019 23:00:00 7,2 4,8 21 11 - - NNE 999,3 19 0 0,2
07.11.2019 22:00:00 7,4 5,9 16 9 - - NNE 998,4 18 0 0,2
07.11.2019 21:00:00 7,2 6,1 11 6 - - NNE 997,5 14 0 0,4
07.11.2019 20:00:00 7,2 6,4 11 6 - - NNE 996,4 13 0 1,0
07.11.2019 19:00:00 6,5 6,3 5 3 - - NNE 995,6 10 0 2,6
07.11.2019 18:00:00 5,9 5,7 8 4 - - NNW 995,0 6 0 2,0
07.11.2019 17:00:00 5,7 5,0 4 2 - - ENE 994,1 15 0 2,0
07.11.2019 16:00:00 5,8 4,7 16 9 - - E 993,5 11 0 3,0
07.11.2019 15:00:00 5,9 5,3 8 4 - - NE 992,7 8 0 3,6
07.11.2019 14:00:00 6,7 5,9 9 5 - - ENE 992,2 10 0 0,8
07.11.2019 13:00:00 6,3 5,6 4 2 - - NNE 991,9 9 0 2,0
07.11.2019 12:00:00 6,6 5,7 5 3 - - E 991,7 9 0 0,6
07.11.2019 11:00:00 6,5 6,0 4 2 - - NNE 991,5 14 0 0,2
07.11.2019 10:00:00 6,1 5,7 4 2 - - NE 991,1 19 0 0,6
07.11.2019 09:00:00 5,4 4,8 0 0 - - N 990,9 21 0 0,2
07.11.2019 08:00:00 5,5 5,0 4 2 - - E 990,8 9 0 3,0
07.11.2019 07:00:00 5,8 5,4 8 4 - - E 990,7 6 0 4,2
07.11.2019 06:00:00 6,0 5,6 9 5 - - E 990,7 5 0 3,6
07.11.2019 05:00:00 6,1 5,7 11 6 - - E 990,9 5 0 1,6
07.11.2019 04:00:00 6,3 5,8 9 5 - - E 991,1 7 0 1,0
07.11.2019 03:00:00 6,5 6,0 9 5 - - E 991,6 8 0 1,2
07.11.2019 02:00:00 6,5 6,1 9 5 - - E 992,4 5 0 1,8
07.11.2019 01:00:00 6,6 6,2 8 4 - - ESE 992,9 7 0 0,6
07.11.2019 00:00:00 6,6 6,4 8 4 - - ESE 993,7 5 - 0,6
06.11.2019 23:00:00 6,2 5,9 8 4 - - E 994,7 6 0 0,0
06.11.2019 22:00:00 5,5 5,3 5 3 - - ESE 995,7 6 0 0,0
06.11.2019 21:00:00 5,0 4,8 8 4 - - ESE 996,5 5 0 0,0
06.11.2019 20:00:00 4,6 4,2 8 4 - - ESE 997,1 5 0 0,0
06.11.2019 19:00:00 5,9 5,3 9 5 - - SSE 997,9 8 0 0,0
06.11.2019 18:00:00 6,2 5,6 9 5 - - SSE 998,6 7 0 0,0
06.11.2019 17:00:00 6,3 5,6 9 5 - - SSE 999,4 13 0 0,0
06.11.2019 16:00:00 6,4 5,9 9 5 - - SSE 1000,1 15 0 0,2

tt = temperature
td = dewpoint
ff = wind speed
fx = gusts
dd = wind direction
ppp = reduced air pressure
vv = visibility
sd = sunshine duration
rr = precipitation

Next stations